Location: Caltech
(34.1382°N, 118.1253°W)
Time: 02:05:27
(UTC-08:00)

Cosmos 1697 Rocket - Visible Passes

Search period start: 31 January 2015 00:00
Search period end: 10 February 2015 00:00
Orbit: 831 x 845 km, 71.0° (Epoch: 30 January)

Date Brightness Start Highest point End Pass type
(mag) Time Alt. Az. Time Alt. Az. Time Alt. Az.
31 Jan 4.8 03:35:05 23° E 03:35:05 23° E 03:37:51 10° ESE visible
31 Jan 3.3 05:16:54 34° WSW 05:16:59 34° WSW 05:21:59 10° SSW visible
31 Jan 2.9 18:14:05 10° SSW 18:19:41 77° WNW 18:25:22 10° NNE visible
01 Feb 5.3 03:20:41 14° ESE 03:20:41 14° ESE 03:21:35 10° ESE visible
01 Feb 3.6 05:02:31 31° SW 05:02:31 31° SW 05:06:02 10° S visible
01 Feb 2.8 17:57:59 10° SSW 18:03:36 83° WNW 18:09:17 10° NNE visible
01 Feb 5.6 19:47:32 10° WNW 19:48:37 10° NW 19:49:19 10° NW visible
02 Feb 4.3 04:48:07 21° SSW 04:48:07 21° SSW 04:50:04 10° S visible
02 Feb 2.8 17:41:54 10° SSW 17:47:32 89° WNW 17:53:12 10° NNE visible
02 Feb 5.5 19:30:34 10° WNW 19:32:26 11° NW 19:33:59 10° NW visible
03 Feb 4.9 04:33:45 12° S 04:33:45 12° S 04:34:06 10° S visible
03 Feb 5.4 19:13:53 10° WNW 19:16:17 12° NW 19:18:22 10° NNW visible
04 Feb 5.4 18:57:20 10° W 19:00:08 13° NW 19:02:37 10° NNW visible
05 Feb 5.3 18:40:51 10° W 18:43:58 14° NW 18:46:49 10° NNW visible
06 Feb 5.3 18:24:25 10° W 18:27:50 15° NW 18:30:59 10° NNW visible
07 Feb 5.2 18:08:01 10° W 18:11:40 17° NW 18:15:07 10° NNW visible
08 Feb 5.2 17:51:40 10° W 17:55:32 18° NW 17:59:12 10° NNW visible
